Regional Weather Roundup
Issued by NWS

Home | Current Version | Previous Version | Graphics & Text | Print | Product List | Glossary On
Versions: 1 2 3 4 5 6 7 8 9 10 11 12 13 14 15 16 17 18 19 20 21 22 23 24 25 26 27 28 29 30 31 32 33 34 35 36 37 38 39 40 41 42 43 44 45 46 47 48 49 50
000
ASUS43 KMKX 271211
RWRWI

WISCONSIN REGIONAL WEATHER ROUNDUP
NATIONAL WEATHER SERVICE MILWAUKEE/SULLIVAN WI
700 AM CDT SAT MAY 27 2017

NOTE: "FAIR" INDICATES FEW OR NO CLOUDS BELOW 12,000 FEET WITH NO
SIGNIFICANT WEATHER AND/OR OBSTRUCTIONS TO VISIBILITY.

WIZ001-002-006>008-014>016-023>028-271300-
NORTHWEST WISCONSIN

CITY           SKY/WX    TMP DP  RH WIND       PRES   REMARKS
SUPERIOR ARPT  NOT AVBL
ASHLAND        SUNNY     56  52  86 SW7       29.83S
6HR MIN TEMP:  51; 6HR MAX TEMP:  56;

HAYWARD        FOG       51  50  96 CALM      29.86R VSB 1/4
6HR MIN TEMP:  45; 6HR MAX TEMP:  52;

SIREN          SUNNY     52  50  92 CALM      29.86F
6HR MIN TEMP:  46; 6HR MAX TEMP:  53; 6HR PCP:  0.01;

CUMBERLAND     SUNNY     52  46  82 CALM      29.86S
RICE LAKE      SUNNY     51  51  98 CALM      29.88R
6HR MIN TEMP:  49; 6HR MAX TEMP:  58; 6HR PCP:  0.01;

CHETEK         SUNNY     52  52 100 CALM      29.87R
6HR MIN TEMP:  48; 6HR MAX TEMP:  57; 6HR PCP:  0.01;

LADYSMITH      FOG       53  52  97 CALM      29.87S VSB 1/4
6HR MIN TEMP:  50; 6HR MAX TEMP:  60; 6HR PCP:  0.01;

EAU CLAIRE     SUNNY     56  55  97 CALM      29.86R
6HR MIN TEMP:  52; 6HR MAX TEMP:  59;

MENOMONIE      SUNNY     56  51  86 CALM      29.87R
6HR MIN TEMP:  51; 6HR MAX TEMP:  61; 6HR PCP:  0.01;

NEW RICHMOND   SUNNY     55  49  82 W7        29.87S
6HR MIN TEMP:  48; 6HR MAX TEMP:  56;

OSCEOLA        SUNNY     51  51 100 CALM      29.91R
6HR MIN TEMP:  46; 6HR MAX TEMP:  54;

$$

WIZ003>005-009-010-017-018-271300-
NORTH CENTRAL WISCONSIN

CITY           SKY/WX    TMP DP  RH WIND       PRES   REMARKS
MANITOWISH WTR CLOUDY    55  55 100 SW5       29.85S FOG
6HR MIN TEMP:  53; 6HR MAX TEMP:  56;

ARBOR VITAE    CLOUDY    57  56  95 SW5       29.85F
6HR MIN TEMP:  56; 6HR MAX TEMP:  59;

WOODRUFF       CLOUDY    57  56  95 SW5       29.85F
6HR MIN TEMP:  56; 6HR MAX TEMP:  59;

RHINELANDER    CLOUDY    58  55  90 SW7       29.87F
6HR MIN TEMP:  56; 6HR MAX TEMP:  58; 6HR PCP: TRACE;

EAGLE RIVER    CLOUDY    57  56  98 SW7       29.86S
6HR MIN TEMP:  53; 6HR MAX TEMP:  57;

LAND O LAKES   CLOUDY    57  55  94 CALM      29.88S
6HR MIN TEMP:  55; 6HR MAX TEMP:  57;

PHILLIPS       FOG       54  54 100 S3        29.85F VSB 1/2
6HR MIN TEMP:  52; 6HR MAX TEMP:  60;

TOMAHAWK       CLOUDY    56  55  96 CALM      29.88S FOG
6HR MIN TEMP:  51; 6HR MAX TEMP:  56;

MEDFORD        FOG       55  54  99 S3        29.87S VSB 3/4
6HR MIN TEMP:  52; 6HR MAX TEMP:  58;

MERRILL        PTSUNNY   54  54 100 CALM      29.88R FOG
6HR MIN TEMP:  50; 6HR MAX TEMP:  56; 6HR PCP:  0.07;

$$

WIZ029-030-035-036-043>047-271300-
CENTRAL WISCONSIN

CITY           SKY/WX    TMP DP  RH WIND       PRES   REMARKS
WAUSAU         SUNNY     56  54  93 CALM      29.87S FOG
6HR MIN TEMP:  52; 6HR MAX TEMP:  56;

MOSINEE        MOSUNNY   55  55 100 S3        29.89S FOG
MARSHFIELD     CLOUDY    55  53  93 SW5       29.87S FOG
6HR MIN TEMP:  53; 6HR MAX TEMP:  56;

STEVENS POINT  CLOUDY    55  55 100 SW3       29.89S FOG
6HR MIN TEMP:  49; 6HR MAX TEMP:  55;

WAUPACA        SUNNY     55  55  97 CALM      29.90S FOG
6HR MIN TEMP:  51; 6HR MAX TEMP:  56;

WAUTOMA        CLOUDY    52  51  97 CALM      29.91S FOG
6HR MIN TEMP:  47; 6HR MAX TEMP:  52;

WISC RAPIDS    SUNNY     56  55  97 S3        29.89F FOG
6HR MIN TEMP:  50; 6HR MAX TEMP:  56;

CAMP DOUGLAS   SUNNY     55  55 100 SE5       29.87F FOG
6HR MIN TEMP:  48; 6HR MAX TEMP:  55;

$$

WIZ011>013-019>022-031-037>040-048>050-271300-
NORTHEAST WISCONSIN

CITY           SKY/WX    TMP DP  RH WIND       PRES   REMARKS
ANTIGO         MOSUNNY   55  55  99 SW3       29.89R FOG
6HR MIN TEMP:  48; 6HR MAX TEMP:  55;

SHAWANO        SUNNY     56  54  93 CALM      29.89S
6HR MIN TEMP:  51; 6HR MAX TEMP:  58;

OCONTO         MOSUNNY   55  54  95 CALM      29.89R
6HR MIN TEMP:  46; 6HR MAX TEMP:  55;

STURGEON BAY   CLOUDY    55  52  89 SW3       29.91R
6HR MIN TEMP:  47; 6HR MAX TEMP:  55;

GREEN BAY      SUNNY     55  55 100 CALM      29.90R FOG
6HR MIN TEMP:  50; 6HR MAX TEMP:  57;

MANITOWOC      SUNNY     53  50  89 CALM      29.92R
6HR MIN TEMP:  46; 6HR MAX TEMP:  53;

APPLETON       MOSUNNY   55  55 100 VRB5      29.89R
CLINTONVILLE   SUNNY     54  52  94 CALM      29.89S FOG
OSHKOSH        SUNNY     57  53  86 S5        29.89S
6HR MIN TEMP:  48; 6HR MAX TEMP:  57;

$$

WIZ032>034-041-042-053>061-271300-
SOUTHWEST WISCONSIN

CITY           SKY/WX    TMP DP  RH WIND       PRES   REMARKS
LA CROSSE      MOSUNNY   61  59  93 S6        29.87S
6HR MIN TEMP:  58; 6HR MAX TEMP:  63;

SPARTA         PTSUNNY   51  50  98 CALM      29.88F
6HR MIN TEMP:  46; 6HR MAX TEMP:  52;

VIROQUA        CLOUDY    58  58 100 N7        29.89F
6HR MIN TEMP:  55; 6HR MAX TEMP:  58;

BOSCOBEL       FOG       54  53  97 CALM      29.90F VSB 1
6HR MIN TEMP:  51; 6HR MAX TEMP:  54;

PRAIRIE DU CHI CLOUDY    55  54  97 CALM      29.89S FOG
6HR MIN TEMP:  53; 6HR MAX TEMP:  55;

PLATTEVILLE    SUNNY     54  54 100 SE3       29.91F
6HR MIN TEMP:  52; 6HR MAX TEMP:  56;

$$

WIZ056-057-062-063-064-067-068-271300-
SOUTH CENTRAL WISCONSIN

CITY           SKY/WX    TMP DP  RH WIND       PRES   REMARKS
REEDSBURG      MOSUNNY   53  53 100 CALM      29.90S FOG
6HR MIN TEMP:  48; 6HR MAX TEMP:  53;

BARABOO/DELLS  SUNNY     54  53  96 S3        29.90F FOG
6HR MIN TEMP:  47; 6HR MAX TEMP:  54;

LONE ROCK      FOG       52  51  97 CALM      29.91S VSB<1/4
6HR MIN TEMP:  50; 6HR MAX TEMP:  53;

MINERAL POINT  FOG       54  54 100 SE5       29.91F VSB 1/4
MADISON        FOG       50  50 100 CALM      29.91S VSB 1/4
6HR MIN TEMP:  45; 6HR MAX TEMP:  51;

MIDDLETON      SUNNY     52  52 100 CALM      29.91F
6HR MIN TEMP:  46; 6HR MAX TEMP:  52;

WATERTOWN      CLOUDY    50  50 100 CALM      29.91S FOG
6HR MIN TEMP:  44; 6HR MAX TEMP:  50;

MONROE         SUNNY     54  54 100 S3        29.92F
JANESVILLE     MOSUNNY   52  52 100 CALM      29.92R FOG
$$

WIZ051-052-058>065-066-070>072-271300-
SOUTHEAST WISCONSIN

CITY           SKY/WX    TMP DP  RH WIND       PRES   REMARKS
MILWAUKEE      PTSUNNY   59  55  87 CALM      29.92R FOG
6HR MIN TEMP:  50; 6HR MAX TEMP:  59;

WAUKESHA       SUNNY     48  48 100 CALM      29.93R FOG
MILWAUKEE/TIMM   N/A     52  50  93 CALM      29.94R FOG
RACINE         SUNNY     55  52  89 NW3       29.94R FOG
6HR MIN TEMP:  47; 6HR MAX TEMP:  55;

KENOSHA        SUNNY     54  52  93 CALM      29.93R FOG
6HR MIN TEMP:  47; 6HR MAX TEMP:  54;

FOND DU LAC    SUNNY     55  52  89 S6        29.91S
6HR MIN TEMP:  48; 6HR MAX TEMP:  55;

SHEBOYGAN      SUNNY     53  53 100 SW3       29.92R
6HR MIN TEMP:  47; 6HR MAX TEMP:  53;

WEST BEND      SUNNY     52  52 100 CALM      29.92R
JUNEAU         MOSUNNY   52  52  99 CALM      29.92S FOG
6HR MIN TEMP:  47; 6HR MAX TEMP:  53;

$$

LSZ147-162-271300-
LAKE SUPERIOR

STATION/POSITION TIME  TEMP    WIND        PRES    WAVE
                       AIR SEA DIR/SP/G            HT/PER
                 (UTC) (F)     (DEG/KT/KT) (MB)    (FT/S)
W MID LAKE BUOY  1050   39 37  280/  8/ 10 1009.7R   0
DEVILS ISLAND    1200   44     270/  9/  9 1010.3R
PORT WING        1040   44     140/  2/  4 1010.2R
SAXON HARBOR     1130   57     190/  5/  8 1009.5F
$$

LMZ867-665-643>646-271300-
LAKE MICHIGAN

STATION/POSITION TIME  TEMP    WIND        PRES    WAVE
                       AIR SEA DIR/SP/G            HT/PER
                 (UTC) (F)     (DEG/KT/KT) (MB)    (FT/S)
CHAMBERS ISLAND  1130   58     180/  3/  8 1011.9R
N MID L



USA.gov is the U.S. government's official web portal to all federal, state and local government web resources and services.